| time (UTC) | temp C | wind direction | speed KPH | gust KPH | rain 1hr cm | rain 24hr cm | rain mn cm | humidity % | barometer mb |
| 20260507070306 | 10 | 7 | 1.6 | 8.0 | 0.00 | 0.00 | 0.00 | 89 | 1005.5 |
| 20260507065803 | 10 | 30 | 1.6 | 11.3 | 0.00 | 0.00 | 0.00 | 88 | 1005.2 |
| 20260507065259 | 10 | 80 | 8.0 | 9.7 | 0.00 | 0.00 | 0.00 | 89 | 1004.9 |
| 20260507064756 | 10 | 272 | 4.8 | 6.4 | 0.00 | 0.00 | 0.00 | 89 | 1004.6 |
| 20260507064255 | 10 | 305 | 4.8 | 8.0 | 0.00 | 0.00 | 0.00 | 89 | 1004.9 |
| 20260507063753 | 10 | 276 | 4.8 | 6.4 | 0.00 | 0.00 | 0.00 | 90 | 1005.1 |
| 20260507063249 | 10 | 60 | 3.2 | 8.0 | 0.00 | 0.00 | 0.00 | 90 | 1004.9 |
| 20260507062746 | 10 | 50 | 4.8 | 9.7 | 0.00 | 0.00 | 0.00 | 90 | 1004.7 |
| 20260507062243 | 10 | 15 | 3.2 | 12.9 | 0.00 | 0.00 | 0.00 | 90 | 1004.7 |
| 20260507061741 | 10 | 321 | 4.8 | 8.0 | 0.00 | 0.00 | 0.00 | 92 | 1004.7 |
| 20260507061239 | 10 | 309 | 3.2 | 4.8 | 0.00 | 0.00 | 0.00 | 92 | 1004.8 |
| 20260507060737 | 10 | 278 | 6.4 | 8.0 | 0.00 | 0.00 | 0.00 | 91 | 1004.7 |
| 20260507060233 | 10 | 327 | 6.4 | 20.9 | 0.00 | 0.00 | 0.00 | 91 | 1005.0 |
| 20260507055730 | 10 | 329 | 4.8 | 16.1 | 0.00 | 0.00 | 0.00 | 90 | 1004.9 |
| 20260507055225 | 10 | 278 | 8.0 | 11.3 | 0.00 | 0.00 | 0.00 | 90 | 1005.0 |
| 20260507054721 | 10 | 293 | 6.4 | 9.7 | 0.00 | 0.00 | 0.00 | 91 | 1005.2 |
| 20260507054219 | 10 | 29 | 4.8 | 9.7 | 0.00 | 0.00 | 0.00 | 91 | 1005.3 |
| 20260507053716 | 10 | 340 | 1.6 | 8.0 | 0.00 | 0.00 | 0.00 | 92 | 1005.3 |
| 20260507053214 | 10 | 359 | 3.2 | 6.4 | 0.00 | 0.00 | 0.00 | 93 | 1005.2 |
| 20260507052713 | 10 | 298 | 0.0 | 6.4 | 0.00 | 0.00 | 0.00 | 94 | 1005.1 |
| 20260507052208 | 10 | 7 | 4.8 | 6.4 | 0.00 | 0.00 | 0.00 | 94 | 1005.3 |
| 20260507051706 | 10 | 53 | 3.2 | 4.8 | 0.00 | 0.00 | 0.00 | 95 | 1005.4 |
| 20260507051203 | 10 | 22 | 0.0 | 6.4 | 0.00 | 0.00 | 0.00 | 95 | 1005.2 |
| 20260507050659 | 11 | 64 | 3.2 | 4.8 | 0.00 | 0.00 | 0.00 | 95 | 1005.0 |
| 20260507050156 | 11 | 8 | 0.0 | 3.2 | 0.00 | 0.00 | 0.00 | 95 | 1005.0 |
| 20260507045653 | 11 | 283 | 3.2 | 8.0 | 0.00 | 0.00 | 0.00 | 95 | 1004.8 |
| 20260507045149 | 11 | 273 | 11.3 | 16.1 | 0.00 | 0.00 | 0.00 | 95 | 1004.9 |
| 20260507044646 | 11 | 267 | 4.8 | 8.0 | 0.00 | 0.00 | 0.00 | 96 | 1004.9 |
| 20260507044143 | 11 | 324 | 3.2 | 9.7 | 0.00 | 0.00 | 0.00 | 95 | 1004.9 |
| 20260507043639 | 11 | 245 | 4.8 | 9.7 | 0.00 | 0.00 | 0.00 | 95 | 1005.1 |
| 20260507043136 | 11 | 291 | 6.4 | 9.7 | 0.00 | 0.00 | 0.00 | 95 | 1005.0 |
| 20260507042633 | 11 | 277 | 4.8 | 6.4 | 0.00 | 0.00 | 0.00 | 95 | 1005.1 |
| 20260507042127 | 11 | 6 | 0.0 | 8.0 | 0.00 | 0.00 | 0.00 | 95 | 1005.3 |
| 20260507041625 | 11 | 0 | 3.2 | 9.7 | 0.00 | 0.00 | 0.00 | 94 | 1005.5 |
| 20260507041122 | 11 | 288 | 4.8 | 22.5 | 0.00 | 0.00 | 0.00 | 94 | 1005.3 |
| 20260507040619 | 11 | 278 | 6.4 | 11.3 | 0.00 | 0.00 | 0.00 | 94 | 1005.1 |
| 20260507040115 | 11 | 266 | 8.0 | 8.0 | 0.00 | 0.00 | 0.00 | 94 | 1005.0 |
| 20260507035610 | 11 | 306 | 3.2 | 12.9 | 0.00 | 0.66 | 0.66 | 94 | 1004.8 |
| 20260507035101 | 12 | 324 | 4.8 | 8.0 | 0.00 | 0.66 | 0.66 | 96 | 1004.6 |
| 20260507034558 | 12 | 318 | 6.4 | 17.7 | 0.00 | 0.66 | 0.66 | 97 | 1004.7 |
| 20260507034056 | 12 | 0 | 4.8 | 8.0 | 0.00 | 0.66 | 0.66 | 98 | 1004.6 |
| 20260507033554 | 12 | 307 | 8.0 | 12.9 | 0.00 | 0.66 | 0.66 | 98 | 1004.5 |
| 20260507033051 | 12 | 71 | 3.2 | 14.5 | 0.00 | 0.66 | 0.66 | 99 | 1004.5 |
| 20260507032548 | 13 | 31 | 8.0 | 12.9 | 0.00 | 0.66 | 0.66 | 99 | 1004.2 |
| 20260507032044 | 13 | 343 | 1.6 | 12.9 | 0.00 | 0.66 | 0.66 | 99 | 1003.9 |
| 20260507031541 | 14 | 31 | 4.8 | 12.9 | 0.00 | 0.66 | 0.66 | 99 | 1004.2 |
| 20260507031038 | 14 | 327 | 8.0 | 9.7 | 0.00 | 0.66 | 0.66 | 99 | 1004.1 |
| 20260507030534 | 14 | 267 | 6.4 | 12.9 | 0.05 | 0.66 | 0.66 | 99 | 1004.0 |
| 20260507030032 | 15 | 354 | 6.4 | 11.3 | 0.05 | 0.66 | 0.66 | 99 | 1004.1 |
| 20260507025529 | 15 | 273 | 11.3 | 19.3 | 0.00 | 0.64 | 0.64 | 99 | 1003.8 |
| 20260507025027 | 15 | 31 | 1.6 | 4.8 | 0.00 | 0.64 | 0.64 | 99 | 1003.8 |
| 20260507024524 | 15 | 317 | 4.8 | 9.7 | 0.00 | 0.64 | 0.64 | 99 | 1003.7 |
| 20260507024021 | 15 | 219 | 0.0 | 11.3 | 0.00 | 0.64 | 0.64 | 99 | 1003.5 |
| 20260507023516 | 15 | 174 | 0.0 | 8.0 | 0.00 | 0.64 | 0.64 | 99 | 1003.5 |
| 20260507023015 | 15 | 267 | 6.4 | 12.9 | 0.00 | 0.64 | 0.64 | 99 | 1003.8 |
| 20260507022511 | 15 | 230 | 1.6 | 14.5 | 0.00 | 0.64 | 0.64 | 99 | 1003.6 |
| 20260507022006 | 15 | 26 | 0.0 | 4.8 | 0.00 | 0.64 | 0.64 | 99 | 1003.4 |
| 20260507021503 | 15 | 92 | 6.4 | 9.7 | 0.00 | 0.64 | 0.64 | 99 | 1003.5 |
| 20260507020959 | 15 | 287 | 4.8 | 8.0 | 0.00 | 0.64 | 0.64 | 99 | 1003.4 |
| 20260507020456 | 15 | 304 | 6.4 | 14.5 | 0.00 | 0.64 | 0.64 | 99 | 1003.5 |
| 20260507015953 | 15 | 268 | 3.2 | 11.3 | 0.00 | 0.64 | 0.64 | 99 | 1003.5 |
| 20260507015452 | 15 | 254 | 4.8 | 8.0 | 0.00 | 0.64 | 0.64 | 99 | 1003.7 |
| 20260507014949 | 15 | 56 | 0.0 | 9.7 | 0.00 | 0.64 | 0.64 | 99 | 1003.5 |
| 20260507014445 | 15 | 335 | 4.8 | 14.5 | 0.00 | 0.64 | 0.64 | 99 | 1003.9 |
| 20260507013941 | 15 | 266 | 4.8 | 17.7 | 0.00 | 0.64 | 0.64 | 99 | 1003.4 |
| 20260507013438 | 15 | 243 | 4.8 | 12.9 | 0.00 | 0.64 | 0.64 | 99 | 1003.8 |
| 20260507012935 | 15 | 107 | 4.8 | 12.9 | 0.00 | 0.64 | 0.64 | 99 | 1003.8 |
| 20260507012432 | 15 | 114 | 3.2 | 4.8 | 0.00 | 0.64 | 0.64 | 99 | 1003.7 |
| 20260507011928 | 15 | 248 | 1.6 | 9.7 | 0.00 | 0.64 | 0.64 | 99 | 1003.7 |
| 20260507011426 | 15 | 85 | 3.2 | 14.5 | 0.00 | 0.64 | 0.64 | 99 | 1003.7 |
| 20260507010920 | 15 | 95 | 3.2 | 11.3 | 0.00 | 0.64 | 0.64 | 99 | 1003.7 |
| 20260507010415 | 15 | 252 | 6.4 | 8.0 | 0.00 | 0.64 | 0.64 | 99 | 1003.7 |
| 20260507005913 | 15 | 89 | 3.2 | 12.9 | 0.00 | 0.64 | 0.64 | 99 | 1003.7 |
| 20260507005410 | 15 | 260 | 8.0 | 11.3 | 0.00 | 0.64 | 0.64 | 99 | 1004.0 |
| 20260507004906 | 15 | 72 | 0.0 | 4.8 | 0.00 | 0.64 | 0.64 | 99 | 1003.8 |
| 20260507004403 | 15 | 239 | 0.0 | 8.0 | 0.00 | 0.64 | 0.64 | 99 | 1003.9 |
| 20260507003900 | 15 | 113 | 3.2 | 9.7 | 0.00 | 0.64 | 0.64 | 99 | 1003.6 |
| 20260507003355 | 15 | 67 | 0.0 | 9.7 | 0.00 | 0.64 | 0.64 | 99 | 1003.6 |
| 20260507002851 | 15 | 60 | 9.7 | 9.7 | 0.00 | 0.64 | 0.64 | 99 | 1003.5 |
| 20260507002347 | 15 | 126 | 3.2 | 8.0 | 0.00 | 0.64 | 0.64 | 99 | 1003.8 |
| 20260507001845 | 15 | 18 | 3.2 | 6.4 | 0.00 | 0.64 | 0.64 | 99 | 1003.8 |
| 20260507001341 | 15 | 156 | 0.0 | 11.3 | 0.00 | 0.64 | 0.64 | 99 | 1003.6 |
| 20260507000838 | 15 | 290 | 3.2 | 11.3 | 0.00 | 0.64 | 0.64 | 99 | 1003.7 |
| 20260507000335 | 15 | 324 | 12.9 | 14.5 | 0.00 | 0.64 | 0.64 | 99 | 1003.7 |
| 20260506235830 | 15 | 72 | 4.8 | 12.9 | 0.00 | 0.64 | 0.64 | 99 | 1003.4 |
| 20260506235327 | 15 | 64 | 4.8 | 9.7 | 0.00 | 0.64 | 0.64 | 99 | 1003.7 |
| 20260506234823 | 15 | 295 | 3.2 | 9.7 | 0.05 | 0.64 | 0.64 | 99 | 1003.5 |
| 20260506234321 | 15 | 248 | 1.6 | 8.0 | 0.05 | 0.64 | 0.64 | 99 | 1003.3 |
| 20260506233818 | 15 | 75 | 6.4 | 8.0 | 0.05 | 0.64 | 0.64 | 99 | 1003.4 |
| 20260506233313 | 15 | 105 | 1.6 | 9.7 | 0.18 | 0.64 | 0.64 | 99 | 1003.4 |
| 20260506232811 | 15 | 80 | 3.2 | 12.9 | 0.36 | 0.61 | 0.61 | 99 | 1003.5 |
| 20260506232306 | 15 | 166 | 6.4 | 11.3 | 0.36 | 0.61 | 0.61 | 99 | 1003.5 |
| 20260506231803 | 15 | 86 | 3.2 | 9.7 | 0.18 | 0.56 | 0.56 | 99 | 1003.3 |
| 20260506231301 | 15 | 100 | 6.4 | 9.7 | 0.05 | 0.53 | 0.53 | 99 | 1003.7 |
| 20260506230758 | 15 | 205 | 3.2 | 8.0 | 0.13 | 0.53 | 0.53 | 99 | 1003.5 |
| 20260506230249 | 15 | 345 | 3.2 | 9.7 | 0.18 | 0.51 | 0.51 | 99 | 1003.9 |
| 20260506225745 | 15 | 248 | 6.4 | 11.3 | 0.30 | 0.51 | 0.51 | 99 | 1003.9 |
| 20260506225242 | 15 | 73 | 3.2 | 14.5 | 0.13 | 0.48 | 0.48 | 99 | 1003.7 |
| 20260506224733 | 15 | 263 | 0.0 | 8.0 | 0.00 | 0.46 | 0.46 | 99 | 1003.8 |
| 20260506224231 | 15 | 76 | 4.8 | 11.3 | 0.05 | 0.46 | 0.46 | 99 | 1003.8 |
| 20260506223727 | 15 | 282 | 0.0 | 11.3 | 0.05 | 0.46 | 0.46 | 99 | 1003.9 |
| 20260506223222 | 15 | 25 | 1.6 | 11.3 | 0.05 | 0.46 | 0.46 | 99 | 1003.9 |
| 20260506222720 | 15 | 73 | 1.6 | 6.4 | 0.05 | 0.46 | 0.46 | 99 | 1003.9 |
| 20260506222215 | 15 | 146 | 4.8 | 9.7 | 0.05 | 0.43 | 0.43 | 99 | 1004.0 |
| 20260506221713 | 15 | 106 | 4.8 | 9.7 | 0.13 | 0.43 | 0.43 | 99 | 1003.8 |
| 20260506221211 | 15 | 87 | 6.4 | 9.7 | 0.23 | 0.43 | 0.43 | 99 | 1004.2 |
| 20260506220708 | 15 | 253 | 4.8 | 9.7 | 0.36 | 0.43 | 0.43 | 99 | 1004.1 |
| 20260506220203 | 15 | 123 | 1.6 | 6.4 | 0.23 | 0.38 | 0.38 | 99 | 1004.0 |
| 20260506215700 | 15 | 94 | 4.8 | 8.0 | 0.05 | 0.36 | 0.36 | 99 | 1004.0 |
| 20260506215155 | 15 | 61 | 4.8 | 9.7 | 0.05 | 0.36 | 0.36 | 99 | 1004.1 |
| 20260506214652 | 15 | 233 | 1.6 | 11.3 | 0.05 | 0.36 | 0.36 | 99 | 1004.0 |
| 20260506214149 | 15 | 247 | 4.8 | 9.7 | 0.00 | 0.33 | 0.33 | 99 | 1004.3 |
| 20260506213648 | 15 | 348 | 3.2 | 8.0 | 0.00 | 0.33 | 0.33 | 99 | 1004.1 |
| 20260506213145 | 15 | 289 | 4.8 | 6.4 | 0.05 | 0.33 | 0.33 | 99 | 1004.2 |
| 20260506212642 | 15 | 106 | 8.0 | 14.5 | 0.13 | 0.33 | 0.33 | 98 | 1004.3 |
| 20260506212136 | 15 | 139 | 4.8 | 11.3 | 0.05 | 0.33 | 0.33 | 98 | 1004.5 |
| 20260506211633 | 15 | 336 | 11.3 | 14.5 | 0.05 | 0.33 | 0.33 | 98 | 1004.5 |
| 20260506211129 | 15 | 89 | 0.0 | 6.4 | 0.05 | 0.30 | 0.30 | 98 | 1004.8 |
| 20260506210627 | 15 | 247 | 4.8 | 9.7 | 0.13 | 0.30 | 0.30 | 98 | 1004.7 |
| 20260506210123 | 15 | 79 | 3.2 | 9.7 | 0.13 | 0.30 | 0.30 | 97 | 1004.6 |
| 20260506205620 | 15 | 343 | 4.8 | 17.7 | 0.13 | 0.28 | 0.28 | 97 | 1004.9 |
| 20260506205114 | 15 | 40 | 3.2 | 6.4 | 0.13 | 0.28 | 0.28 | 97 | 1004.6 |
| 20260506204613 | 15 | 274 | 8.0 | 14.5 | 0.05 | 0.28 | 0.28 | 96 | 1004.7 |
| 20260506204109 | 16 | 103 | 3.2 | 17.7 | 0.05 | 0.25 | 0.25 | 97 | 1004.7 |
| 20260506203608 | 16 | 178 | 4.8 | 17.7 | 0.13 | 0.25 | 0.25 | 97 | 1004.7 |
| 20260506203104 | 16 | 75 | 3.2 | 8.0 | 0.23 | 0.25 | 0.25 | 97 | 1004.8 |
| 20260506202602 | 16 | 77 | 4.8 | 8.0 | 0.18 | 0.23 | 0.23 | 96 | 1004.8 |
| 20260506202058 | 16 | 252 | 3.2 | 4.8 | 0.13 | 0.20 | 0.20 | 96 | 1004.6 |
| 20260506201555 | 16 | 37 | 3.2 | 4.8 | 0.23 | 0.20 | 0.20 | 95 | 1004.5 |
| 20260506201052 | 16 | 43 | 0.0 | 9.7 | 0.18 | 0.18 | 0.18 | 95 | 1004.5 |
| 20260506200548 | 16 | 259 | 3.2 | 9.7 | 0.05 | 0.18 | 0.18 | 94 | 1004.9 |
| 20260506200045 | 16 | 269 | 0.0 | 8.0 | 0.00 | 0.15 | 0.15 | 94 | 1004.6 |
| 20260506195542 | 16 | 281 | 4.8 | 6.4 | 0.05 | 0.15 | 0.15 | 93 | 1004.7 |
| 20260506195038 | 16 | 59 | 3.2 | 9.7 | 0.13 | 0.15 | 0.15 | 93 | 1004.5 |
| 20260506194536 | 16 | 117 | 4.8 | 12.9 | 0.13 | 0.15 | 0.15 | 93 | 1004.5 |
| 20260506194032 | 17 | 70 | 3.2 | 9.7 | 0.13 | 0.15 | 0.15 | 93 | 1004.7 |
| 20260506193530 | 17 | 227 | 4.8 | 8.0 | 0.18 | 0.13 | 0.13 | 91 | 1004.9 |
| 20260506193027 | 17 | 267 | 3.2 | 9.7 | 0.23 | 0.13 | 0.13 | 89 | 1004.7 |
| 20260506192524 | 17 | 238 | 1.6 | 4.8 | 0.18 | 0.10 | 0.10 | 89 | 1004.7 |
| 20260506192019 | 17 | 259 | 1.6 | 6.4 | 0.13 | 0.08 | 0.08 | 88 | 1005.0 |
| 20260506191516 | 17 | 0 | 0.0 | 4.8 | 0.18 | 0.08 | 0.08 | 84 | 1004.6 |
| 20260506191012 | 18 | 257 | 8.0 | 9.7 | 0.13 | 0.05 | 0.05 | 84 | 1004.9 |
| 20260506190510 | 18 | 283 | 6.4 | 14.5 | 0.05 | 0.05 | 0.05 | 82 | 1004.9 |
| 20260506190007 | 18 | 276 | 0.0 | 9.7 | 0.13 | 0.05 | 0.05 | 81 | 1004.9 |
| 20260506185504 | 18 | 345 | 3.2 | 12.9 | 0.13 | 0.03 | 0.03 | 79 | 1004.8 |
| 20260506185000 | 19 | 337 | 0.0 | 8.0 | 0.05 | 0.03 | 0.03 | 77 | 1005.0 |
| 20260506184458 | 20 | 268 | 4.8 | 9.7 | 0.00 | 0.00 | 0.00 | 74 | 1004.8 |
| 20260506183955 | 20 | 318 | 4.8 | 14.5 | 0.05 | 0.00 | 0.00 | 72 | 1005.2 |
| 20260506183450 | 20 | 359 | 1.6 | 6.4 | 0.05 | 0.00 | 0.00 | 72 | 1005.0 |
| 20260506182947 | 20 | 106 | 6.4 | 19.3 | 0.00 | 0.00 | 0.00 | 69 | 1004.8 |
| 20260506182444 | 20 | 312 | 4.8 | 11.3 | 0.00 | 0.00 | 0.00 | 68 | 1004.8 |
| 20260506181941 | 20 | 185 | 3.2 | 11.3 | 0.00 | 0.00 | 0.00 | 69 | 1004.9 |
| 20260506181439 | 20 | 64 | 3.2 | 6.4 | 0.00 | 0.00 | 0.00 | 69 | 1004.8 |
| 20260506180936 | 20 | 205 | 3.2 | 11.3 | 0.00 | 0.00 | 0.00 | 68 | 1004.8 |
| 20260506180432 | 21 | 250 | 0.0 | 6.4 | 0.00 | 0.00 | 0.00 | 67 | 1004.8 |
| 20260506175929 | 21 | 237 | 0.0 | 9.7 | 0.00 | 0.00 | 0.00 | 62 | 1004.8 |
| 20260506175426 | 21 | 52 | 8.0 | 14.5 | 0.00 | 0.00 | 0.00 | 60 | 1004.9 |
| 20260506174923 | 22 | 143 | 3.2 | 12.9 | 0.00 | 0.00 | 0.00 | 60 | 1005.1 |
| 20260506174421 | 22 | 214 | 4.8 | 14.5 | 0.00 | 0.00 | 0.00 | 59 | 1004.9 |
| 20260506173917 | 22 | 24 | 6.4 | 16.1 | 0.00 | 0.00 | 0.00 | 58 | 1004.8 |
| 20260506173414 | 22 | 67 | 4.8 | 11.3 | 0.00 | 0.00 | 0.00 | 59 | 1004.9 |
| 20260506172912 | 22 | 125 | 4.8 | 11.3 | 0.00 | 0.00 | 0.00 | 58 | 1004.8 |
| 20260506172408 | 22 | 89 | 4.8 | 9.7 | 0.00 | 0.00 | 0.00 | 59 | 1004.8 |
| 20260506171905 | 22 | 251 | 4.8 | 14.5 | 0.00 | 0.00 | 0.00 | 58 | 1005.1 |
| 20260506171403 | 22 | 40 | 4.8 | 16.1 | 0.00 | 0.00 | 0.00 | 59 | 1005.2 |
| 20260506170900 | 22 | 280 | 6.4 | 12.9 | 0.00 | 0.00 | 0.00 | 58 | 1005.3 |
| 20260506170355 | 22 | 245 | 9.7 | 20.9 | 0.00 | 0.00 | 0.00 | 60 | 1005.4 |
| 20260506165850 | 22 | 48 | 4.8 | 4.8 | 0.00 | 0.00 | 0.00 | 59 | 1005.3 |
| 20260506165347 | 22 | 325 | 4.8 | 14.5 | 0.00 | 0.00 | 0.00 | 59 | 1005.3 |
| 20260506164843 | 22 | 297 | 8.0 | 12.9 | 0.00 | 0.00 | 0.00 | 59 | 1005.5 |
| 20260506164340 | 22 | 302 | 3.2 | 16.1 | 0.00 | 0.00 | 0.00 | 60 | 1005.6 |
| 20260506163838 | 22 | 92 | 0.0 | 8.0 | 0.00 | 0.00 | 0.00 | 60 | 1005.6 |
| 20260506163332 | 22 | 47 | 4.8 | 8.0 | 0.00 | 0.00 | 0.00 | 60 | 1005.9 |
| 20260506162827 | 22 | 10 | 3.2 | 14.5 | 0.00 | 0.00 | 0.00 | 60 | 1005.8 |
| 20260506162325 | 22 | 326 | 3.2 | 20.9 | 0.00 | 0.00 | 0.00 | 60 | 1005.8 |
| 20260506161817 | 22 | 278 | 3.2 | 9.7 | 0.00 | 0.00 | 0.00 | 61 | 1005.8 |
| 20260506161314 | 22 | 239 | 4.8 | 8.0 | 0.00 | 0.00 | 0.00 | 63 | 1006.2 |
| 20260506160812 | 22 | 310 | 3.2 | 8.0 | 0.00 | 0.00 | 0.00 | 61 | 1006.0 |
| 20260506160308 | 21 | 323 | 1.6 | 9.7 | 0.00 | 0.00 | 0.00 | 63 | 1006.3 |
| 20260506155807 | 21 | 260 | 6.4 | 12.9 | 0.00 | 0.00 | 0.00 | 62 | 1006.2 |
| 20260506155306 | 21 | 10 | 3.2 | 14.5 | 0.00 | 0.00 | 0.00 | 63 | 1006.5 |
| 20260506153416 | 21 | 244 | 11.3 | 12.9 | 0.00 | 0.00 | 0.00 | 63 | 1006.8 |
| 20260506152914 | 21 | 268 | 8.0 | 11.3 | 0.00 | 0.00 | 0.00 | 63 | 1006.8 |
| 20260506152410 | 21 | 7 | 6.4 | 24.1 | 0.00 | 0.00 | 0.00 | 63 | 1006.7 |
| 20260506151909 | 21 | 277 | 6.4 | 17.7 | 0.00 | 0.00 | 0.00 | 63 | 1007.1 |
| 20260506151405 | 21 | 341 | 4.8 | 14.5 | 0.00 | 0.00 | 0.00 | 63 | 1007.1 |
| 20260506150903 | 21 | 280 | 4.8 | 20.9 | 0.00 | 0.00 | 0.00 | 66 | 1006.8 |
| 20260506150359 | 21 | 253 | 3.2 | 9.7 | 0.00 | 0.00 | 0.00 | 65 | 1006.7 |
| 20260506145856 | 21 | 278 | 0.0 | 9.7 | 0.00 | 0.00 | 0.00 | 66 | 1007.1 |
| 20260506145352 | 21 | 249 | 4.8 | 9.7 | 0.00 | 0.00 | 0.00 | 67 | 1007.1 |
| 20260506144850 | 21 | 117 | 6.4 | 11.3 | 0.00 | 0.00 | 0.00 | 67 | 1007.1 |
| 20260506144346 | 20 | 273 | 8.0 | 9.7 | 0.00 | 0.00 | 0.00 | 67 | 1006.8 |
| 20260506143845 | 20 | 63 | 3.2 | 11.3 | 0.00 | 0.00 | 0.00 | 68 | 1006.8 |
| 20260506143341 | 20 | 340 | 1.6 | 8.0 | 0.00 | 0.00 | 0.00 | 69 | 1007.1 |
| 20260506142839 | 20 | 254 | 12.9 | 22.5 | 0.00 | 0.00 | 0.00 | 69 | 1006.9 |
| 20260506142337 | 20 | 143 | 4.8 | 16.1 | 0.00 | 0.00 | 0.00 | 68 | 1006.8 |
| 20260506141835 | 21 | 257 | 4.8 | 14.5 | 0.00 | 0.00 | 0.00 | 69 | 1006.6 |
| 20260506141333 | 20 | 75 | 4.8 | 14.5 | 0.00 | 0.00 | 0.00 | 70 | 1006.7 |
| 20260506140831 | 20 | 273 | 1.6 | 9.7 | 0.00 | 0.00 | 0.00 | 73 | 1006.8 |
| 20260506140327 | 19 | 74 | 4.8 | 14.5 | 0.00 | 0.00 | 0.00 | 72 | 1006.8 |
| 20260506135824 | 19 | 256 | 4.8 | 11.3 | 0.00 | 0.00 | 0.00 | 73 | 1007.0 |
| 20260506135321 | 19 | 259 | 4.8 | 12.9 | 0.00 | 0.00 | 0.00 | 73 | 1007.2 |
| 20260506134817 | 18 | 100 | 3.2 | 8.0 | 0.00 | 0.00 | 0.00 | 74 | 1007.2 |
| 20260506134314 | 18 | 264 | 4.8 | 11.3 | 0.00 | 0.00 | 0.00 | 74 | 1007.2 |
| 20260506133811 | 18 | 345 | 4.8 | 11.3 | 0.00 | 0.00 | 0.00 | 74 | 1007.3 |
| 20260506133308 | 18 | 230 | 4.8 | 14.5 | 0.00 | 0.00 | 0.00 | 74 | 1007.5 |
| 20260506132804 | 18 | 52 | 6.4 | 9.7 | 0.00 | 0.00 | 0.00 | 75 | 1007.4 |
| 20260506132302 | 18 | 258 | 0.0 | 12.9 | 0.00 | 0.00 | 0.00 | 75 | 1007.5 |
| 20260506131800 | 18 | 329 | 6.4 | 12.9 | 0.00 | 0.00 | 0.00 | 75 | 1007.5 |
| 20260506131255 | 18 | 86 | 4.8 | 8.0 | 0.00 | 0.00 | 0.00 | 76 | 1007.4 |
| 20260506130752 | 18 | 83 | 6.4 | 19.3 | 0.00 | 0.00 | 0.00 | 76 | 1007.2 |
| 20260506130249 | 18 | 79 | 6.4 | 11.3 | 0.00 | 0.00 | 0.00 | 76 | 1007.5 |
| 20260506125747 | 18 | 251 | 8.0 | 12.9 | 0.00 | 0.00 | 0.00 | 76 | 1007.5 |
| 20260506125245 | 18 | 89 | 4.8 | 17.7 | 0.00 | 0.00 | 0.00 | 76 | 1007.6 |
| 20260506124743 | 18 | 309 | 4.8 | 9.7 | 0.00 | 0.00 | 0.00 | 76 | 1007.3 |
| 20260506124240 | 18 | 230 | 8.0 | 9.7 | 0.00 | 0.00 | 0.00 | 77 | 1007.0 |
| 20260506123738 | 18 | 84 | 3.2 | 9.7 | 0.00 | 0.00 | 0.00 | 77 | 1007.3 |
| 20260506123237 | 17 | 34 | 3.2 | 11.3 | 0.00 | 0.00 | 0.00 | 76 | 1007.3 |
| 20260506122732 | 17 | 119 | 8.0 | 16.1 | 0.00 | 0.00 | 0.00 | 76 | 1007.5 |
| 20260506122230 | 17 | 54 | 3.2 | 11.3 | 0.00 | 0.00 | 0.00 | 77 | 1007.5 |
| 20260506121728 | 18 | 286 | 6.4 | 16.1 | 0.00 | 0.00 | 0.00 | 76 | 1007.5 |
| 20260506121225 | 18 | 285 | 4.8 | 11.3 | 0.00 | 0.00 | 0.00 | 75 | 1007.5 |
| 20260506120722 | 17 | 127 | 8.0 | 17.7 | 0.00 | 0.00 | 0.00 | 78 | 1007.5 |
| 20260506120220 | 17 | 78 | 3.2 | 14.5 | 0.00 | 0.00 | 0.00 | 79 | 1007.5 |
| 20260506115717 | 17 | 154 | 3.2 | 8.0 | 0.00 | 0.00 | 0.00 | 78 | 1007.6 |
| 20260506115215 | 17 | 42 | 4.8 | 9.7 | 0.00 | 0.00 | 0.00 | 79 | 1007.7 |
| 20260506114713 | 17 | 11 | 1.6 | 11.3 | 0.00 | 0.00 | 0.00 | 79 | 1007.8 |
| 20260506114210 | 17 | 281 | 4.8 | 14.5 | 0.00 | 0.00 | 0.00 | 79 | 1007.7 |
| 20260506113708 | 17 | 111 | 4.8 | 6.4 | 0.00 | 0.00 | 0.00 | 79 | 1007.9 |
| 20260506113205 | 16 | 113 | 6.4 | 19.3 | 0.00 | 0.00 | 0.00 | 79 | 1007.9 |
| 20260506112702 | 16 | 81 | 4.8 | 11.3 | 0.00 | 0.00 | 0.00 | 80 | 1007.9 |
| 20260506112200 | 16 | 353 | 0.0 | 4.8 | 0.00 | 0.00 | 0.00 | 80 | 1008.0 |
| 20260506111657 | 16 | 184 | 3.2 | 11.3 | 0.00 | 0.00 | 0.00 | 80 | 1007.8 |
| 20260506111154 | 16 | 244 | 6.4 | 11.3 | 0.00 | 0.00 | 0.00 | 80 | 1007.9 |
| 20260506110651 | 16 | 349 | 3.2 | 6.4 | 0.00 | 0.00 | 0.00 | 80 | 1007.9 |
| 20260506110149 | 16 | 307 | 3.2 | 11.3 | 0.00 | 0.00 | 0.00 | 81 | 1008.0 |
| 20260506105645 | 16 | 16 | 1.6 | 11.3 | 0.00 | 0.00 | 0.00 | 81 | 1008.0 |
| 20260506105142 | 16 | 50 | 3.2 | 6.4 | 0.00 | 0.00 | 0.00 | 81 | 1007.8 |
| 20260506104641 | 16 | 212 | 3.2 | 6.4 | 0.00 | 0.00 | 0.00 | 81 | 1007.9 |
| 20260506104138 | 16 | 319 | 0.0 | 6.4 | 0.00 | 0.00 | 0.00 | 81 | 1007.8 |
| 20260506103635 | 16 | 222 | 3.2 | 12.9 | 0.00 | 0.00 | 0.00 | 81 | 1007.9 |
| 20260506103132 | 16 | 116 | 4.8 | 8.0 | 0.00 | 0.00 | 0.00 | 81 | 1007.7 |
| 20260506102630 | 16 | 80 | 4.8 | 8.0 | 0.00 | 0.00 | 0.00 | 81 | 1007.8 |
| 20260506102127 | 16 | 283 | 3.2 | 6.4 | 0.00 | 0.00 | 0.00 | 81 | 1007.8 |
| 20260506101623 | 15 | 250 | 8.0 | 9.7 | 0.00 | 0.00 | 0.00 | 81 | 1007.6 |
| 20260506101120 | 15 | 244 | 4.8 | 8.0 | 0.00 | 0.00 | 0.00 | 81 | 1008.0 |
| 20260506100619 | 15 | 233 | 1.6 | 11.3 | 0.00 | 0.00 | 0.00 | 81 | 1007.7 |
| 20260506100116 | 15 | 187 | 3.2 | 8.0 | 0.00 | 0.00 | 0.00 | 81 | 1007.7 |
| 20260506095615 | 15 | 357 | 0.0 | 11.3 | 0.00 | 0.00 | 0.00 | 81 | 1007.6 |
| 20260506095111 | 15 | 63 | 3.2 | 6.4 | 0.00 | 0.00 | 0.00 | 81 | 1007.7 |
| 20260506094609 | 15 | 46 | 4.8 | 9.7 | 0.00 | 0.00 | 0.00 | 81 | 1007.6 |
| 20260506094106 | 15 | 132 | 0.0 | 4.8 | 0.00 | 0.00 | 0.00 | 81 | 1007.4 |
| 20260506093605 | 15 | 30 | 3.2 | 4.8 | 0.00 | 0.00 | 0.00 | 80 | 1008.0 |
| 20260506093102 | 16 | 255 | 0.0 | 9.7 | 0.00 | 0.00 | 0.00 | 80 | 1008.0 |
| 20260506092559 | 16 | 33 | 1.6 | 8.0 | 0.00 | 0.00 | 0.00 | 79 | 1007.7 |
| 20260506092056 | 16 | 96 | 3.2 | 9.7 | 0.00 | 0.00 | 0.00 | 80 | 1007.8 |
| 20260506091555 | 16 | 74 | 6.4 | 9.7 | 0.00 | 0.00 | 0.00 | 79 | 1007.7 |
| 20260506091052 | 16 | 247 | 4.8 | 6.4 | 0.00 | 0.00 | 0.00 | 80 | 1007.8 |
| 20260506090549 | 16 | 55 | 3.2 | 6.4 | 0.00 | 0.00 | 0.00 | 79 | 1007.8 |
| 20260506090045 | 16 | 18 | 1.6 | 8.0 | 0.00 | 0.00 | 0.00 | 79 | 1007.7 |
| 20260506085542 | 16 | 68 | 3.2 | 8.0 | 0.00 | 0.00 | 0.00 | 78 | 1007.6 |
| 20260506085038 | 16 | 328 | 4.8 | 9.7 | 0.00 | 0.00 | 0.00 | 78 | 1007.7 |
| 20260506084536 | 16 | 92 | 4.8 | 19.3 | 0.00 | 0.00 | 0.00 | 77 | 1007.9 |
| 20260506084032 | 16 | 304 | 3.2 | 8.0 | 0.00 | 0.00 | 0.00 | 77 | 1007.8 |
| 20260506083529 | 16 | 50 | 4.8 | 8.0 | 0.00 | 0.00 | 0.00 | 77 | 1007.8 |
| 20260506083027 | 16 | 54 | 4.8 | 9.7 | 0.00 | 0.00 | 0.00 | 77 | 1007.7 |
| 20260506082523 | 16 | 51 | 1.6 | 9.7 | 0.00 | 0.00 | 0.00 | 77 | 1007.8 |
| 20260506082019 | 16 | 318 | 3.2 | 9.7 | 0.00 | 0.00 | 0.00 | 76 | 1007.7 |
| 20260506081517 | 16 | 27 | 3.2 | 11.3 | 0.00 | 0.00 | 0.00 | 76 | 1007.6 |
| 20260506081015 | 16 | 272 | 4.8 | 6.4 | 0.00 | 0.00 | 0.00 | 75 | 1007.7 |
| 20260506080512 | 16 | 52 | 1.6 | 6.4 | 0.00 | 0.00 | 0.00 | 75 | 1007.6 |
| 20260506073455 | 17 | 233 | 1.6 | 17.7 | 0.00 | 0.00 | 0.00 | 73 | 1007.4 |
| 20260506072952 | 17 | 42 | 3.2 | 8.0 | 0.00 | 0.00 | 0.00 | 72 | 1007.4 |
| 20260506072449 | 17 | 24 | 3.2 | 9.7 | 0.00 | 0.00 | 0.00 | 72 | 1007.4 |
| 20260506071947 | 17 | 70 | 3.2 | 8.0 | 0.00 | 0.00 | 0.00 | 72 | 1007.3 |
| 20260506071445 | 17 | 256 | 6.4 | 9.7 | 0.00 | 0.00 | 0.00 | 72 | 1007.5 |
| 20260506070942 | 17 | 34 | 4.8 | 9.7 | 0.00 | 0.00 | 0.00 | 71 | 1007.3 |